STARLINK-35197 (66193 NORAD) Tracking and Keplerian Element Data

This shows tracking and keplerian element data for the satellite.

Feedback or suggestion? Click here.




ElementValue
Catalog66193
NameSTARLINK-35197
Epoch Orbit845
Epoch Day353.99352522
Epoch Year2025
RAAN255.3131
Inclination53.1614
Eccentricity0.0001843
Argument of Perigee91.802
Mean Anonmoly268.3192
Mean Motion15.3020071
Decay Rate0.0001288
L11 66193U 25243S 25353.99352522 .00012880 00000+0 44624-3 0 9997
L22 66193 53.1614 255.3131 0001843 91.8020 268.3192 15.30200710 8450



Live tracking and technical data element details for STARLINK-35197 (NORAD 66193). STARLINK-35197 can be tracked NOW for your location showing map with azimuth and elevation plus other details from your city location.







IsCatalogInMostPopularTable: catalog: 66193, numindb: 8
Update: records affected: 1



GetName: 66193 STARLINK-35197

Hit Count: updated at: Tue, 21 Apr 2026 20:39:36 GMT